Regional Weather Roundup
Issued by NWS

Home | Current Version | Previous Version | Text Only | Print | Product List | Glossary Off
Versions: 1 2 3 4 5 6 7 8 9 10 11 12 13 14 15 16 17 18 19 20 21 22 23 24 25 26 27 28 29 30 31 32 33 34 35 36 37 38 39 40 41 42 43 44 45 46 47 48 49 50

000
ASUS43 KFSD 250110
RWRSD

WEATHER ROUNDUP FOR SOUTH DAKOTA
NATIONAL WEATHER SERVICE SIOUX FALLS SD
800 PM CDT SUN JUL 24 2016

NOTE: "FAIR" INDICATES FEW OR NO CLOUDS BELOW 12,000 FEET WITH NO
SIGNIFICANT WEATHER AND/OR OBSTRUCTIONS TO VISIBILITY.


SDZ001>005-009-010-012>017-250200-
NORTHWEST AND NORTH CENTRAL SOUTH DAKOTA

CITY           SKY/WX    TMP DP  RH WIND       PRES   REMARKS
BUFFALO          N/A     88  43  20 SE16      29.98F
FAITH            N/A     85  41  21 S9        30.06S
MOBRIDGE       SUNNY     84  54  35 E7        30.01S
$$

SDZ012>016-024>037-041>051-057-063-072>074-250200-
SOUTHWEST AND SOUTH CENTRAL SOUTH DAKOTA

CITY           SKY/WX    TMP DP  RH WIND       PRES   REMARKS
RAPID CTY ARPT SUNNY     83  49  30 SE13      30.07F
PIERRE         SUNNY     85  48  27 N5        30.03S
CUSTER         SUNNY     75  42  30 SE9       30.22S
ELLSWORTH AFB  SUNNY     85  49  29 SE13      30.07S
PHILIP         SUNNY     85  54  34 E9        30.05R
PINE RIDGE     SUNNY     84  49  29 E13G21    30.09S
WINNER         FAIR      85  49  28 NE7       30.07S
$$

SDZ004>011-016>023-039-040-250200-
NORTHEAST SOUTH DAKOTA

CITY           SKY/WX    TMP DP  RH WIND       PRES   REMARKS
ABERDEEN       SUNNY     82  57  42 NW9       30.01S
WATERTOWN      CLEAR     80  57  45 NW10      30.02S
BROOKINGS      CLEAR     76  65  68 W6        30.03S
SISSETON         N/A     78  58  49 N8        29.98S
$$

SDZ017-020-022-023-036>040-048>070-250200-
SOUTHEAST SOUTH DAKOTA

CITY           SKY/WX    TMP DP  RH WIND       PRES   REMARKS
SIOUX FALLS    PTCLDY    77  63  61 W3        30.04R
HURON          SUNNY     83  58  42 N3        30.02S
CHAMBERLAIN    SUNNY     81  60  47 S3        30.05S
MITCHELL       CLEAR     81  56  42 CALM      30.04S
YANKTON        CLOUDY    79  59  50 N5        30.03R
$$

ABBREVIATIONS USED IN REMARKS
   TC - TEMPERATURE IN CELSIUS
  WCI - WIND CHILL INDEX
   HX - HEAT INDEX
  VSB - VISIBILITY





USA.gov is the U.S. government's official web portal to all federal, state and local government web resources and services.